COSMOS 970 DEB, 64968

Orbit data source: Space-Track

COSMOS 970 DEB, 64968 is space debris in LEO originally from a launch on Wed, 21 Dec 1977 UTC launched from the Tyuratam Missile And Space Complex (TTMTR). Debris objects in space refer to the collection of defunct objects orbiting the Earth. Examples of debris include non-operational satellites, rocket bodies, and fragments generated from explosions, collisions, or faulty payload assembly.

Loading next visibility...
Identifier
64968, 1977-121CD
Orbit
LEO
Country
Flag of CISCIS
Related business
Manufacturer
Unknown
Mission
Spacecraft
Bus & Motor
Unknown
Mass
Unknown
Launch date (UTC)
1977-12-21 (48 years ago)
Launch vehicle
Unknown
Launch site
Tyuratam Missile And Space Complex (TTMTR)
Object type
Payload
Rocket body
Debris
Shape & HBR
Unknown shape, 0.1 m
Radar Cross Section
Small (<0.1 m²)

Expand to show TLE details & history
Last TLE update: 2 days ago

TLE from 2 days ago
0 COSMOS 970 DEB
1 64968U 77121CD  26169.64721376  .00000196  00000-0  29893-3 0  9991
2 64968  65.8565 127.0970 0117122 100.6520  80.7611 13.69947055628596
Epoch: 2026-06-18T15:31Z
TLE epoch observation values (Epoch: 2026-06-18T15:31:59.268Z)
Latitude
-2.61283°
Longitude
168.37847°
Altitude
989.235 km
Speed
7.364 km/s
True Right ascension
20h 33m 03s
True Declination
-2° 35' 52"
Sunlit
Object was in full shadow at epoch
Visualization orbit readout
Latitude
Unknown
Longitude
Unknown
Altitude
Unknown
Speed
Unknown
Apparent Right ascension
Unknown
Apparent Declination
Unknown
Sunlit
N/A
Visualization observer readout
Local Sidereal Time
07:14:07
Azimuth
Unknown
Elevation
Unknown
Doppler factor
Unknown
Orbital elements
Apogee altitude
1,084.673 km
Perigee altitude
911.885 km
Semi-major axis
7,376.416 km
Eccentricity
0.01171
Inclination
65.8565°
RAAN
127.097°
Arg. of periapsis
100.652°
True anomaly
82.08881°
Mean anomaly
80.7611°
Eccentric anomaly
81.42466°
Mean motion
3.4259 °/min
Orbital period
105.08 mins
BSTAR
0.00029893
Loading maneuver chart data...
Computing Atmospheric mass density...
Loading historical data...
Loading historical data...
Loading historical data...
Loading historical data...
Loading historical data...
Loading historical data...
Loading historical data...

Documentation

Showing up to 5 results
|